• en France
  • Liste des pays
  • À 7 jours
  • Température de l'eau
  • Carte satellitaire
  • Carte météo
  • Widgets météo
  • user-avatar
    Se connecter

    Météo par heure à Saidpur

    Ce jour, 24 Novembre, Vendredi

    Heure Température Précipitation Vent Pression Humidité
    00:00 +19°C° 0 mm 2 m/s 756 mmHg 43%
    01:00 +18°C° 0 mm 2 m/s 756 mmHg 45%
    02:00 +18°C° 0 mm 2 m/s 756 mmHg 46%
    03:00 +17°C° 0 mm 2 m/s 756 mmHg 48%
    04:00 +17°C° 0 mm 2 m/s 756 mmHg 50%
    05:00 +17°C° 0 mm 2 m/s 756 mmHg 51%
    06:00 +16°C° 0 mm 2 m/s 756 mmHg 53%
    07:00 +18°C° 0 mm 2 m/s 757 mmHg 51%
    08:00 +19°C° 0 mm 2 m/s 757 mmHg 49%
    09:00 +21°C° 0 mm 2 m/s 758 mmHg 47%
    10:00 +24°C° 0 mm 2 m/s 758 mmHg 43%
    11:00 +25°C° 0 mm 2 m/s 757 mmHg 39%
    12:00 +27°C° 0 mm 2 m/s 757 mmHg 35%
    13:00 +27°C° 0 mm 2 m/s 757 mmHg 34%
    14:00 +28°C° 0 mm 3 m/s 756 mmHg 33%
    15:00 +28°C° 0 mm 3 m/s 755 mmHg 31%
    16:00 +26°C° 0 mm 2 m/s 755 mmHg 36%
    17:00 +24°C° 0 mm 2 m/s 756 mmHg 41%
    18:00 +23°C° 0 mm 2 m/s 756 mmHg 45%
    19:00 +21°C° 0 mm 2 m/s 756 mmHg 46%
    20:00 +20°C° 0 mm 2 m/s 757 mmHg 47%
    21:00 +20°C° 0 mm 2 m/s 757 mmHg 47%
    22:00 +19°C° 0 mm 2 m/s 757 mmHg 47%
    23:00 +19°C° 0 mm 2 m/s 757 mmHg 47%

    Demain, 25 Novembre, Samedi

    Heure Température Précipitation Vent Pression Humidité
    00:00 +18°C° 0 mm 2 m/s 758 mmHg 46%
    01:00 +19°C° 0 mm 1 m/s 757 mmHg 47%
    02:00 +19°C° 0 mm 1 m/s 757 mmHg 48%
    03:00 +18°C° 0 mm 1 m/s 757 mmHg 48%
    04:00 +18°C° 0 mm 1 m/s 757 mmHg 50%
    05:00 +18°C° 0 mm 1 m/s 758 mmHg 52%
    06:00 +16°C° 0 mm 1 m/s 758 mmHg 54%
    07:00 +19°C° 0 mm 1 m/s 758 mmHg 53%
    08:00 +19°C° 0 mm 2 m/s 759 mmHg 51%
    09:00 +21°C° 0 mm 2 m/s 760 mmHg 50%
    10:00 +24°C° 0 mm 2 m/s 759 mmHg 48%
    11:00 +25°C° 0 mm 2 m/s 759 mmHg 45%
    12:00 +27°C° 0 mm 2 m/s 759 mmHg 43%
    13:00 +27°C° 0 mm 1 m/s 758 mmHg 40%
    14:00 +28°C° 0 mm 1 m/s 758 mmHg 38%
    15:00 +28°C° 0 mm 1 m/s 757 mmHg 36%
    16:00 +27°C° 0 mm 1 m/s 757 mmHg 40%
    17:00 +25°C° 0 mm 1 m/s 757 mmHg 44%
    18:00 +24°C° 0 mm 1 m/s 758 mmHg 48%
    19:00 +23°C° 0 mm 2 m/s 758 mmHg 49%
    20:00 +21°C° 0 mm 2 m/s 759 mmHg 50%
    21:00 +21°C° 0 mm 2 m/s 759 mmHg 51%
    22:00 +20°C° 0 mm 2 m/s 759 mmHg 52%
    23:00 +20°C° 0 mm 2 m/s 759 mmHg 53%

    Après-demain, 26 Novembre, Dimanche

    Heure Température Précipitation Vent Pression Humidité
    00:00 +19°C° 0 mm 2 m/s 759 mmHg 55%
    01:00 +19°C° 0 mm 2 m/s 759 mmHg 58%
    02:00 +19°C° 0 mm 2 m/s 759 mmHg 61%
    03:00 +18°C° 0 mm 2 m/s 758 mmHg 63%
    04:00 +18°C° 0 mm 2 m/s 758 mmHg 67%
    05:00 +18°C° 0 mm 2 m/s 759 mmHg 70%
    06:00 +18°C° 0 mm 2 m/s 759 mmHg 73%
    07:00 +19°C° 0 mm 2 m/s 759 mmHg 69%
    08:00 +21°C° 0 mm 2 m/s 760 mmHg 65%
    09:00 +23°C° 0 mm 2 m/s 760 mmHg 61%
    10:00 +24°C° 0 mm 2 m/s 760 mmHg 56%
    11:00 +26°C° 0 mm 2 m/s 759 mmHg 51%
    12:00 +27°C° 0 mm 2 m/s 759 mmHg 46%
    13:00 +28°C° 0 mm 2 m/s 758 mmHg 44%
    14:00 +28°C° 0 mm 1 m/s 757 mmHg 43%
    15:00 +28°C° 0 mm 1 m/s 757 mmHg 41%
    16:00 +27°C° 0 mm 1 m/s 757 mmHg 45%
    17:00 +25°C° 0 mm 1 m/s 757 mmHg 49%
    18:00 +24°C° 0 mm 1 m/s 757 mmHg 53%
    19:00 +23°C° 0 mm 1 m/s 757 mmHg 55%
    20:00 +23°C° 0 mm 1 m/s 758 mmHg 56%
    21:00 +22°C° 0 mm 1 m/s 758 mmHg 58%
    22:00 +22°C° 0 mm 1 m/s 758 mmHg 59%
    23:00 +22°C° 0 mm 1 m/s 758 mmHg 60%

    27 Novembre, Lundi

    Heure Température Précipitation Vent Pression Humidité
    00:00 +20°C° 0 mm 2 m/s 758 mmHg 62%
    01:00 +21°C° 0 mm 1 m/s 757 mmHg 63%
    02:00 +20°C° 0 mm 1 m/s 757 mmHg 64%
    03:00 +20°C° 0 mm 1 m/s 757 mmHg 65%
    04:00 +19°C° 0 mm 1 m/s 757 mmHg 65%
    05:00 +19°C° 0 mm 1 m/s 757 mmHg 66%
    06:00 +19°C° 0 mm 1 m/s 757 mmHg 66%
    07:00 +20°C° 0 mm 1 m/s 758 mmHg 61%
    08:00 +20°C° 0 mm 2 m/s 758 mmHg 56%
    09:00 +23°C° 0 mm 2 m/s 759 mmHg 52%
    10:00 +24°C° 0 mm 2 m/s 758 mmHg 48%
    11:00 +26°C° 0 mm 2 m/s 758 mmHg 44%
    12:00 +27°C° 0 mm 2 m/s 757 mmHg 40%
    13:00 +27°C° 0 mm 2 m/s 757 mmHg 39%
    14:00 +28°C° 0 mm 1 m/s 756 mmHg 38%
    15:00 +28°C° 0 mm 1 m/s 755 mmHg 37%
    16:00 +27°C° 0 mm 1 m/s 755 mmHg 41%
    17:00 +25°C° 0 mm 1 m/s 755 mmHg 44%
    18:00 +24°C° 0 mm 1 m/s 755 mmHg 48%
    19:00 +23°C° 0 mm 1 m/s 756 mmHg 49%
    20:00 +23°C° 0 mm 1 m/s 756 mmHg 51%
    21:00 +22°C° 0 mm 1 m/s 757 mmHg 52%
    22:00 +21°C° 0 mm 1 m/s 756 mmHg 53%
    23:00 +21°C° 0 mm 1 m/s 756 mmHg 54%

    28 Novembre, Mardi

    Heure Température Précipitation Vent Pression Humidité
    00:00 +21°C° 0 mm 1 m/s 756 mmHg 55%
    01:00 +20°C° 0 mm 1 m/s 756 mmHg 56%
    02:00 +20°C° 0 mm 1 m/s 756 mmHg 58%
    03:00 +19°C° 0 mm 1 m/s 756 mmHg 59%
    04:00 +19°C° 0 mm 1 m/s 756 mmHg 61%
    05:00 +18°C° 0 mm 1 m/s 756 mmHg 62%
    06:00 +18°C° 0 mm 1 m/s 756 mmHg 64%
    07:00 +19°C° 0 mm 1 m/s 757 mmHg 60%
    08:00 +21°C° 0 mm 1 m/s 758 mmHg 56%
    09:00 +22°C° 0 mm 1 m/s 759 mmHg 52%
    10:00 +24°C° 0 mm 1 m/s 758 mmHg 48%
    11:00 +25°C° 0 mm 1 m/s 758 mmHg 43%
    12:00 +27°C° 0 mm 1 m/s 758 mmHg 39%
    13:00 +27°C° 0 mm 1 m/s 757 mmHg 37%
    14:00 +27°C° 0 mm 1 m/s 756 mmHg 35%
    15:00 +28°C° 0 mm 1 m/s 756 mmHg 34%
    16:00 +26°C° 0 mm 1 m/s 756 mmHg 37%
    17:00 +25°C° 0 mm 1 m/s 756 mmHg 40%
    18:00 +23°C° 0 mm 1 m/s 756 mmHg 43%
    19:00 +23°C° 0 mm 1 m/s 757 mmHg 45%
    20:00 +22°C° 0 mm 1 m/s 757 mmHg 46%
    21:00 +21°C° 0 mm 1 m/s 758 mmHg 47%
    22:00 +21°C° 0 mm 1 m/s 757 mmHg 49%
    23:00 +20°C° 0 mm 1 m/s 757 mmHg 51%

    29 Novembre, Mercredi

    Heure Température Précipitation Vent Pression Humidité
    00:00 +19°C° 0 mm 2 m/s 757 mmHg 53%
    01:00 +18°C° 0 mm 2 m/s 757 mmHg 56%
    02:00 +18°C° 0 mm 2 m/s 757 mmHg 58%
    03:00 +18°C° 0 mm 2 m/s 757 mmHg 61%
    04:00 +17°C° 0 mm 2 m/s 758 mmHg 62%
    05:00 +17°C° 0 mm 2 m/s 758 mmHg 63%
    06:00 +17°C° 0 mm 2 m/s 758 mmHg 63%
    07:00 +18°C° 0 mm 2 m/s 759 mmHg 59%
    08:00 +20°C° 0 mm 2 m/s 759 mmHg 54%
    09:00 +21°C° 0 mm 2 m/s 760 mmHg 49%
    10:00 +23°C° 0 mm 2 m/s 759 mmHg 45%
    11:00 +25°C° 0 mm 2 m/s 759 mmHg 41%
    12:00 +26°C° 0 mm 2 m/s 758 mmHg 37%
    13:00 +27°C° 0 mm 2 m/s 758 mmHg 36%
    14:00 +27°C° 0 mm 2 m/s 757 mmHg 35%
    15:00 +27°C° 0 mm 2 m/s 756 mmHg 35%
    16:00 +26°C° 0 mm 2 m/s 757 mmHg 38%
    17:00 +24°C° 0 mm 2 m/s 757 mmHg 42%
    18:00 +23°C° 0 mm 2 m/s 757 mmHg 46%
    19:00 +22°C° 0 mm 1 m/s 757 mmHg 47%
    20:00 +22°C° 0 mm 1 m/s 757 mmHg 48%
    21:00 +21°C° 0 mm 1 m/s 758 mmHg 50%
    22:00 +21°C° 0 mm 1 m/s 757 mmHg 51%
    23:00 +20°C° 0 mm 1 m/s 757 mmHg 52%
    Voir plus